Weather History for South Haven, MI

Change the Weather History Date:

Thursday, January 16, 2014

  Actual Average (KBIV) Record (KBIV)
Temperature  
Mean Temperature 23 °F 26 °F  
Max Temperature 32 °F 32 °F 58 °F (1949)
Min Temperature 14 °F 20 °F -16 °F (1972)
Degree Days  
Heating Degree Days 42 39  
Month to date heating degree days 615  
Since 1 July heating degree days 2883  
Cooling Degree Days 0 0  
Month to date cooling degree days 0  
Year to date cooling degree days 0  
Moisture  
Dew Point 21 °F    
Average Humidity 85    
Maximum Humidity 95    
Minimum Humidity 76    
Precipitation  
Precipitation 0.00 in 0.06 in 0.25 in (1969)
Month to date precipitation 1.08  
Year to date precipitation 1.08  
Sea Level Pressure  
Sea Level Pressure 29.64 in    
Wind  
Wind Speed 11 mph (SSW)    
Max Wind Speed 18 mph    
Max Gust Speed 26 mph    
Visibility 6 miles    
Events Snow    
T = Trace of Precipitation, MM = Missing Value Source: NWS Daily Summary

Daily Weather History Graph

Daily Weather History Graph

Search for Another Location

Airport:

Trip Planner

Search our weather history database for the weather conditions in past years. The results will help you decide how hot, cold, wet, or windy it might be!

Date:

Astronomy

Jan. 16, 2014 Rise Set
Actual Time 8:11 AM EST 5:38 PM EST
Civil Twilight 7:40 AM EST 6:09 PM EST
Nautical Twilight 7:05 AM EST 6:44 PM EST
Astronomical Twilight 6:31 AM EST 7:18 PM EST
Moon 6:32 PM EST (1/16) 8:02 AM EST (1/16)
Length of Visible Light 10h 29m
Length of Day
9h 27m
Full, 100% of the Moon is Illuminated
Jan 16
Full
Jan 24
Last Quarter
Jan 30
New
Feb 6
First Quarter
Feb 14
Full

Hourly Weather History & Observations

Time (EST) Temp. Windchill Dew Point Humidity Pressure Visibility Wind Dir Wind Speed Gust Speed Precip Events Conditions
12:15 AM 14.9 °F 5.0 °F 9.5 °F 79% 29.89 in 10.0 mi South 6.9 mph - N/A   Scattered Clouds
12:35 AM 14.7 °F 3.8 °F 9.5 °F 80% 29.88 in 10.0 mi SSW 8.1 mph - N/A   Clear
12:55 AM 14.9 °F 5.0 °F 9.9 °F 80% 29.89 in 10.0 mi SSW 6.9 mph 17.3 mph N/A   Scattered Clouds
1:15 AM 15.6 °F 4.0 °F 10.4 °F 80% 29.88 in 10.0 mi South 9.2 mph - N/A   Mostly Cloudy
1:35 AM 16.3 °F 4.1 °F 10.8 °F 79% 29.86 in 10.0 mi South 10.4 mph - N/A   Overcast
1:55 AM 16.7 °F 3.8 °F 11.1 °F 79% 29.85 in 10.0 mi South 11.5 mph 18.4 mph N/A   Overcast
2:15 AM 16.9 °F 4.1 °F 11.3 °F 79% 29.85 in 10.0 mi South 11.5 mph 17.3 mph N/A   Overcast
2:35 AM 17.4 °F 6.2 °F 11.7 °F 78% 29.83 in 10.0 mi South 9.2 mph 19.6 mph N/A   Overcast
2:55 AM 17.6 °F 5.0 °F 12.0 °F 79% 29.81 in 10.0 mi South 11.5 mph 18.4 mph N/A   Overcast
3:15 AM 18.0 °F 4.8 °F 12.0 °F 78% 29.79 in 10.0 mi South 12.7 mph 18.4 mph N/A   Overcast
3:34 AM 18.3 °F 6.6 °F 12.2 °F 77% 29.79 in 10.0 mi South 10.4 mph 17.3 mph N/A   Overcast
3:51 AM 18.5 °F 6.1 °F 12.7 °F 78% 29.77 in 10.0 mi South 11.5 mph 18.4 mph N/A   Overcast
4:14 AM 19.0 °F 5.0 °F 13.1 °F 78% 29.76 in 10.0 mi South 15.0 mph 19.6 mph N/A   Overcast
4:35 AM 19.4 °F 6.6 °F 13.1 °F 76% 29.75 in 10.0 mi South 12.7 mph - N/A   Overcast
4:55 AM 19.4 °F 6.0 °F 14.7 °F 82% 29.74 in 2.5 mi South 13.8 mph 19.6 mph N/A Snow Light Snow
5:15 AM 19.9 °F 7.3 °F 14.9 °F 81% 29.73 in 10.0 mi South 12.7 mph - N/A   Overcast
5:35 AM 20.3 °F 7.7 °F 15.6 °F 82% 29.72 in 5.0 mi South 12.7 mph 19.6 mph N/A Snow Light Snow
5:55 AM 20.1 °F 7.5 °F 16.7 °F 87% 29.71 in 1.8 mi South 12.7 mph 19.6 mph N/A Snow Light Snow
6:15 AM 20.1 °F 7.5 °F 17.1 °F 88% 29.69 in 1.8 mi South 12.7 mph 18.4 mph N/A Snow Light Snow
6:35 AM 20.3 °F 6.6 °F 17.1 °F 87% 29.68 in 2.5 mi South 15.0 mph 18.4 mph N/A Snow Light Snow
6:55 AM 20.5 °F 8.6 °F 17.2 °F 87% 29.67 in 4.0 mi South 11.5 mph 19.6 mph N/A Snow Light Snow
7:15 AM 20.8 °F 7.3 °F 17.2 °F 86% 29.66 in 4.0 mi South 15.0 mph 21.9 mph N/A Snow Light Snow
7:35 AM 21.0 °F 7.6 °F 17.6 °F 87% 29.65 in 2.5 mi South 15.0 mph 23.0 mph N/A Snow Light Snow
7:55 AM 21.2 °F 7.3 °F 18.0 °F 87% 29.64 in 3.0 mi South 16.1 mph 25.3 mph N/A Snow Light Snow
8:15 AM 21.6 °F 9.3 °F 18.0 °F 86% 29.64 in 5.0 mi South 12.7 mph 18.4 mph N/A Snow Light Snow
8:35 AM 22.1 °F 8.9 °F 18.1 °F 85% 29.64 in 7.0 mi South 15.0 mph 20.7 mph N/A Snow Light Snow
8:54 AM 22.6 °F 10.7 °F 18.3 °F 83% 29.64 in 5.0 mi South 12.7 mph 21.9 mph N/A   Overcast
9:15 AM 23.0 °F 11.1 °F 18.5 °F 83% 29.64 in 7.0 mi South 12.7 mph 19.6 mph N/A Snow Light Snow
9:34 AM 23.4 °F 11.1 °F 18.9 °F 83% 29.64 in 10.0 mi South 13.8 mph 20.7 mph N/A   Overcast
9:55 AM 23.9 °F 12.9 °F 19.2 °F 82% 29.64 in 10.0 mi South 11.5 mph 20.7 mph N/A   Overcast
10:15 AM 24.3 °F 12.7 °F 19.4 °F 82% 29.64 in 10.0 mi South 12.7 mph 19.6 mph N/A   Overcast
10:35 AM 24.6 °F 14.4 °F 20.1 °F 83% 29.64 in 10.0 mi SSW 10.4 mph 17.3 mph N/A   Overcast
10:55 AM 25.2 °F 14.4 °F 20.3 °F 82% 29.63 in 10.0 mi SSW 11.5 mph 19.6 mph N/A   Overcast
11:15 AM 25.5 °F 12.9 °F 20.8 °F 82% 29.62 in 10.0 mi South 16.1 mph 20.7 mph N/A   Overcast
11:35 AM 26.1 °F 14.0 °F 21.2 °F 82% 29.60 in 10.0 mi South 15.0 mph 20.7 mph N/A   Overcast
11:55 AM 26.4 °F 13.2 °F 21.2 °F 81% 29.59 in 10.0 mi South 18.4 mph 26.5 mph N/A   Overcast
12:15 PM 27.0 °F 15.2 °F 21.6 °F 80% 29.58 in 10.0 mi South 15.0 mph 20.7 mph N/A   Overcast
12:35 PM 27.1 °F 15.4 °F 21.6 °F 80% 29.57 in 10.0 mi South 15.0 mph 20.7 mph N/A   Overcast
12:55 PM 27.3 °F 15.6 °F 21.9 °F 80% 29.56 in 10.0 mi South 15.0 mph 19.6 mph N/A   Overcast
1:15 PM 27.5 °F 17.4 °F 22.1 °F 80% 29.55 in 10.0 mi South 11.5 mph 20.7 mph N/A   Overcast
1:35 PM 27.9 °F 17.3 °F 22.6 °F 81% 29.54 in 10.0 mi South 12.7 mph 21.9 mph N/A   Overcast
1:55 PM 28.0 °F 16.1 °F 23.0 °F 81% 29.54 in 10.0 mi South 16.1 mph 20.7 mph N/A   Overcast
2:15 PM 28.0 °F 18.6 °F 23.4 °F 83% 29.53 in 5.0 mi South 10.4 mph 19.6 mph N/A Snow Light Snow
2:35 PM 27.9 °F 18.4 °F 24.3 °F 86% 29.53 in 1.2 mi South 10.4 mph - N/A Snow Light Snow
2:55 PM 28.4 °F 18.5 °F 24.3 °F 84% 29.52 in 5.0 mi South 11.5 mph 18.4 mph N/A Snow Light Snow
3:14 PM 28.4 °F 19.7 °F 24.6 °F 86% 29.52 in 3.0 mi South 9.2 mph 16.1 mph N/A Snow Light Snow
3:35 PM 28.4 °F 18.0 °F 25.7 °F 90% 29.52 in 1.2 mi South 12.7 mph - N/A Snow Light Snow
3:55 PM 28.4 °F 19.1 °F 26.1 °F 91% 29.52 in 1.2 mi South 10.4 mph - N/A Snow Light Snow
4:14 PM 28.4 °F 19.1 °F 26.4 °F 92% 29.52 in 1.2 mi South 10.4 mph - N/A Snow Light Snow
4:35 PM 28.8 °F 20.2 °F 26.6 °F 92% 29.52 in 2.0 mi South 9.2 mph - N/A Snow Light Snow
4:55 PM 29.1 °F 20.0 °F 26.6 °F 90% 29.52 in 3.0 mi South 10.4 mph 16.1 mph N/A Snow Light Snow
5:15 PM 29.3 °F 20.8 °F 27.0 °F 91% 29.52 in 5.0 mi South 9.2 mph - N/A Snow Light Snow
5:35 PM 29.3 °F 20.8 °F 27.1 °F 92% 29.53 in 7.0 mi South 9.2 mph 17.3 mph N/A   Overcast
5:55 PM 29.3 °F 21.5 °F 27.5 °F 93% 29.53 in 2.5 mi South 8.1 mph - N/A Snow Light Snow
6:15 PM 29.3 °F 21.5 °F 27.9 °F 94% 29.53 in 2.5 mi South 8.1 mph - N/A Snow Light Snow
6:35 PM 29.7 °F 21.3 °F 28.0 °F 94% 29.53 in 2.5 mi South 9.2 mph - N/A Snow Light Snow
6:55 PM 29.8 °F 22.2 °F 28.4 °F 94% 29.53 in 3.0 mi South 8.1 mph - N/A Snow Light Snow
7:15 PM 30.0 °F 21.7 °F 28.4 °F 94% 29.53 in 2.0 mi South 9.2 mph - N/A Snow Light Snow
7:35 PM 30.2 °F 20.8 °F 28.9 °F 95% 29.53 in 2.5 mi South 11.5 mph - N/A Snow Light Snow
7:55 PM 30.4 °F 22.9 °F 28.9 °F 94% 29.53 in 3.0 mi SSW 8.1 mph - N/A Snow Light Snow
8:15 PM 30.6 °F 23.1 °F 28.9 °F 94% 29.54 in 3.0 mi SSW 8.1 mph 16.1 mph N/A Snow Light Snow
8:35 PM 30.7 °F 22.6 °F 29.3 °F 94% 29.54 in 1.8 mi South 9.2 mph - N/A Snow Light Snow
8:55 PM 30.7 °F 22.0 °F 29.3 °F 94% 29.54 in 1.8 mi SW 10.4 mph - N/A Snow Light Snow
9:15 PM 31.3 °F 23.9 °F 29.8 °F 94% 29.55 in 5.0 mi SW 8.1 mph - N/A Snow Light Snow
9:35 PM 32.0 °F 21.6 °F 28.4 °F 87% 29.56 in 7.0 mi West 15.0 mph 21.9 mph N/A   Overcast
9:55 PM 31.5 °F 20.1 °F 27.3 °F 85% 29.57 in 7.0 mi WSW 17.3 mph 23.0 mph N/A   Overcast
10:15 PM 30.4 °F 20.5 °F 26.2 °F 85% 29.58 in 4.0 mi West 12.7 mph 25.3 mph N/A Snow Light Snow
10:35 PM 29.8 °F 19.3 °F 26.4 °F 87% 29.59 in 3.0 mi WSW 13.8 mph 24.2 mph N/A Snow Light Snow
10:55 PM 28.9 °F 17.7 °F 26.6 °F 91% 29.60 in 1.8 mi WSW 15.0 mph 21.9 mph N/A Snow Light Snow
11:15 PM 28.9 °F 17.3 °F 26.4 °F 90% 29.60 in 3.0 mi West 16.1 mph 21.9 mph N/A Snow Light Snow
11:35 PM 29.1 °F 17.9 °F 26.1 °F 88% 29.61 in 5.0 mi West 15.0 mph 19.6 mph N/A Snow Light Snow
11:55 PM 28.9 °F 18.6 °F 25.3 °F 86% 29.62 in 7.0 mi West 12.7 mph 23.0 mph N/A Snow Light Snow